Powrót do katalogu

R5-S2

AktywnyNaukaSSO
NORAD 60207·PAYLOAD·🇺🇸 United States

Wystrzelony Jul 4, 2024 z Vandenberg Space Force Base

Loading…

Następne Przeloty (najbliższe 24 godziny)

TLE

ŚwieżeSource: Space-Track

Epoka: Sep 14, 2026, 13:06 UTC

1 60207U 24125E   26257.54638218  .00014789  00000-0  28766-3 0  9999
2 60207  97.2249 109.2750 0012828 262.2598  97.7196 15.47599940122994

Śledź R5-S2 w czasie rzeczywistym z AllMySat

Download on the App Store